User: anonymous   Login
Location: *
(32.3300°N, 34.8500°E)
Time: 18:05:46
(UTC+00:00)
Language:

Meteor 1-31 Rocket - Orbit

View from above orbital plane
View from above orbital plane
View from above satellite
View from above satellite

Ground track
Ground track

The orbit data is extracted from the following two-line orbital elements,

1 12586U 81065B   19348.43337857  .00000329  00000-0  23792-4 0  9998
2 12586  97.6011 327.1297 0017729 319.9874  40.0048 15.10629656 93892
Epoch (UTC): 14 December 2019 10:24:03
Eccentricity: 0.0017729
inclination: 97.6011°
perigee height: 522 km
apogee height: 546 km
right ascension of ascending node: 327.1297°
argument of perigee: 319.9874°
revolutions per day: 15.10629656
mean anomaly at epoch: 40.0048°
orbit number at epoch: 9389

The dashed part of the orbit path shows where the satellite is in the earth's shadow,  

DLR